Weather Roundup
Issued by NWS Corpus Christi, TX

Home | Current Version | Previous Version | Text Only | Print | Product List | Glossary On
Versions: 1 2 3 4 5 6 7 8 9 10 11 12 13 14 15 16 17 18 19 20 21 22 23 24 25 26 27 28 29 30 31 32 33 34 35 36 37 38 39 40 41 42 43 44 45 46 47 48 49 50
000
ASUS44 KCRP 250410
HRRCRP

SOUTH TEXAS REGIONAL WEATHER ROUNDUP
NATIONAL WEATHER SERVICE CORPUS CHRISTI TX
1100 PM CDT FRI APR 24 2015


TXZ229>244-250500-
...CORPUS CHRISTI AREA OBSERVATIONS...

CITY           SKY/WX    TMP DP  RH WIND       PRES   REMARKS
CORPUS CHRISTI CLOUDY    77  75  93 SE6       29.77R THUNDER FOG
NAS CORPUS CHR CLOUDY    77  75  93 S8        29.78R
ROCKPORT       CLOUDY    77  74  90 CALM      29.80R FOG
KINGSVILLE NAS CLOUDY    80  79  96 SE21      29.69F FOG
ALICE          CLOUDY    80  76  87 S9        29.78R FOG
FALFURRIAS     CLOUDY    81  76  84 S9        29.77R
$$

...VICTORIA AREA OBSERVATIONS...

CITY           SKY/WX    TMP DP  RH WIND       PRES   REMARKS
VICTORIA       LGT RAIN  76  76 100 W8        29.83R FOG
BEEVILLE       CLOUDY    76  76 100 SE8       29.77F FOG
PLEASANTON     CLOUDY    69  67  93 SE7       29.74F
SAN ANTONIO    CLOUDY    78  74  87 S5        29.77R
$$

...LAREDO AREA OBSERVATIONS...

CITY           SKY/WX    TMP DP  RH WIND       PRES   REMARKS
LAREDO         CLOUDY    83  76  79 E12       29.73R HAZE    HX  91
COTULLA        CLOUDY    74  68  81 E7        29.74R
DEL RIO        MOCLDY    73  71  93 SE5       29.74R
MCALLEN        TSTM      82  76  81 SW22G30   29.81R
HEBBRONVILLE     N/A     81  76  86 E8        29.75R FOG
$$

...OTHER TEXAS OBSERVATIONS...

CITY           SKY/WX    TMP DP  RH WIND       PRES   REMARKS
BROWNSVILLE    CLOUDY    78  75  90 SW6       29.76R
HOUSTON        CLOUDY    78  74  87 SW8       29.76R
COL. STATION   CLOUDY    76  72  87 S10       29.75R
AUSTIN         CLOUDY    76  73  91 S14       29.73S
WACO           CLOUDY    69  62  78 SW10      29.73R
FORT WORTH     MOCLDY    60  60 100 SE3       29.69R
WICHITA FALLS  PTCLDY    64  63  96 S14       29.65R
LUBBOCK        CLEAR     60  29  30 W15       29.78R
EL PASO        PTCLDY    66  27  23 W10       29.94R
$$

...MARINE OBSERVATIONS...

STATION/POSITION TIME  SKY/WX   TEMP    WIND        PRES    VSBY  WAVE   SWELL
                                AIR SEA DIR/SP/G                  HT/PER HT/PER
                 (UTC)          (F)     (DEG/KT/KT) (MB)    (MI)  (FT/S) (FT/S)
PORT ARANSAS     0400            76 78  210/  5/  6 1009.2R
BUOY 90 E PORT A 0350            76 75  170/  8/ 10 1007.9R         3/ 6   3/ 6
BUOY 45 SE BAFFI 0350            76 75  170/  8/ 10 1007.1R         4/ 6   3/ 6
BUOY 200 E PT IS 0350            79 78  160/ 14/ 16 1008.0F         3/ 6   2/ 8
BUOY 15 E GALVES 0350            74 74  160/  8/ 10 1007.6S         2/ 7   2/ 7
$$


USA.gov is the U.S. government's official web portal to all federal, state and local government web resources and services.